Location: Peterborough
(44.3091°N, 78.3197°W)
Time: 06:31:31
(UTC-04:00)

Vanguard 2 - Pass Details

Date: 28 March 2023
Orbit: 552 x 2926 km, 32.9° (Epoch: 04 June)

Event Time Altitude Azimuth Distance (km) Brightness Sun altitude
Rises 07:26:12 0° 248° (WSW) 6,757 11.7 3.5°
Reaches altitude 10° 07:30:53 10° 245° (WSW) 5,746 11.4 4.3°
Maximum altitude 07:47:25 52° 176° (S) 2,976 10.7 7.3°
Drops below altitude 10° 07:59:29 10° 105° (ESE) 4,304 13.8 9.4°
Sets 08:02:27 0° 100° (E) 5,016 14.0 10.0°
